SWA223 KOKC-KLGA

Flight info

Callsign SWA223
Flight time N/A
Altitude 33000
Route TRUPR3 TRUPR TUL J78 PLESS/N0461F350 J78 PXV ROD KLYNE Q29 WWSHR TEESY Q186 WEVEL ETG MIP4
Aircraft B738/M-SDE2E3FGHIRWXY/LB1

Departure

Time 2026-04-20 20:19
Airport OKC Will Rogers World Airport (KOKC)

Arrival

Time N/A
Airport LaGuardia Airport (KLGA)
Time Latitude Longitude Altitude Speed Heading
2026-04-20 20:05 35.39544 -97.59996 1295 ft 0 kts 117°
2026-04-20 20:09 35.39547 -97.60004 1294 ft 2 kts 117°
2026-04-20 20:10 35.39555 -97.60021 1294 ft 2 kts 117°
2026-04-20 20:10 35.39562 -97.60039 1293 ft 2 kts 116°
2026-04-20 20:10 35.39569 -97.60057 1293 ft 2 kts 116°
2026-04-20 20:10 35.39577 -97.60074 1293 ft 2 kts 142°
2026-04-20 20:11 35.39592 -97.60082 1293 ft 2 kts 182°
2026-04-20 20:11 35.39608 -97.60078 1293 ft 2 kts 227°
2026-04-20 20:11 35.39608 -97.60077 1293 ft 0 kts 227°
2026-04-20 20:11 35.39607 -97.60078 1293 ft 0 kts 227°
2026-04-20 20:12 35.39603 -97.60084 1293 ft 1 kts 227°
2026-04-20 20:12 35.39593 -97.60096 1292 ft 3 kts 226°
2026-04-20 20:12 35.39578 -97.60116 1292 ft 4 kts 226°
2026-04-20 20:13 35.39555 -97.60118 1292 ft 6 kts 166°
2026-04-20 20:13 35.39504 -97.60069 1293 ft 12 kts 136°
2026-04-20 20:13 35.39440 -97.59994 1295 ft 13 kts 135°
2026-04-20 20:13 35.39418 -97.59894 1296 ft 12 kts 91°
2026-04-20 20:14 35.39417 -97.59790 1298 ft 12 kts 91°
2026-04-20 20:14 35.39394 -97.59693 1299 ft 12 kts 105°
2026-04-20 20:14 35.39384 -97.59596 1299 ft 11 kts 91°
2026-04-20 20:14 35.39383 -97.59501 1300 ft 11 kts 88°
2026-04-20 20:15 35.39384 -97.59392 1298 ft 15 kts 90°
2026-04-20 20:15 35.39385 -97.59254 1296 ft 12 kts 77°
2026-04-20 20:15 35.39457 -97.59207 1297 ft 12 kts 37°
2026-04-20 20:15 35.39477 -97.59109 1296 ft 12 kts 80°
2026-04-20 20:16 35.39546 -97.59063 1295 ft 13 kts 359°
2026-04-20 20:16 35.39642 -97.59063 1296 ft 14 kts
2026-04-20 20:16 35.39738 -97.59063 1298 ft 13 kts
2026-04-20 20:16 35.39830 -97.59062 1298 ft 13 kts
2026-04-20 20:17 35.39928 -97.59062 1296 ft 14 kts
2026-04-20 20:17 35.40026 -97.59063 1296 ft 14 kts 360°
2026-04-20 20:17 35.40118 -97.59063 1297 ft 13 kts 360°
2026-04-20 20:17 35.40209 -97.59063 1298 ft 13 kts
2026-04-20 20:18 35.40296 -97.59063 1296 ft 13 kts 360°
2026-04-20 20:18 35.40391 -97.59063 1295 ft 15 kts 360°
2026-04-20 20:18 35.40490 -97.59043 1297 ft 15 kts 39°
2026-04-20 20:18 35.40494 -97.58928 1299 ft 14 kts 129°
2026-04-20 20:19 35.40183 -97.58894 1298 ft 85 kts 180°
2026-04-20 20:19 35.39344 -97.58894 1294 ft 153 kts 180°
2026-04-20 20:19 35.38153 -97.58894 1750 ft 181 kts 179°
2026-04-20 20:19 35.36888 -97.58852 2826 ft 179 kts 180°
2026-04-20 20:20 35.35660 -97.58841 3950 ft 177 kts 181°
2026-04-20 20:20 35.34385 -97.58845 4446 ft 195 kts 181°
2026-04-20 20:20 35.32941 -97.58652 4654 ft 226 kts 159°
2026-04-20 20:20 35.31686 -97.57316 5002 ft 257 kts 124°
2026-04-20 20:21 35.31101 -97.55185 5649 ft 276 kts 99°
2026-04-20 20:21 35.31371 -97.52802 6317 ft 292 kts 71°
2026-04-20 20:21 35.32404 -97.50646 7119 ft 297 kts 55°
2026-04-20 20:21 35.33657 -97.48653 7899 ft 299 kts 52°
2026-04-20 20:22 35.34950 -97.46679 8763 ft 297 kts 52°
2026-04-20 20:22 35.36256 -97.44675 9464 ft 303 kts 51°
2026-04-20 20:22 35.37562 -97.42643 10266 ft 305 kts 52°
2026-04-20 20:22 35.38893 -97.40541 10674 ft 321 kts 52°
2026-04-20 20:23 35.40298 -97.38296 10855 ft 344 kts 52°
2026-04-20 20:23 35.41790 -97.35898 11087 ft 364 kts 52°
2026-04-20 20:23 35.43360 -97.33357 11237 ft 384 kts 53°
2026-04-20 20:23 35.44967 -97.30746 11641 ft 393 kts 52°
2026-04-20 20:24 35.46628 -97.28040 12168 ft 399 kts 52°
2026-04-20 20:24 35.48294 -97.25320 12869 ft 400 kts 52°
2026-04-20 20:24 35.49969 -97.22583 13541 ft 401 kts 53°
2026-04-20 20:24 35.51653 -97.19833 14135 ft 405 kts 52°
2026-04-20 20:25 35.53349 -97.17059 14658 ft 409 kts 52°
2026-04-20 20:25 35.55060 -97.14253 15226 ft 410 kts 53°
2026-04-20 20:25 35.56776 -97.11441 15742 ft 414 kts 52°
2026-04-20 20:25 35.58507 -97.08601 16252 ft 418 kts 52°
2026-04-20 20:26 35.60260 -97.05727 16748 ft 421 kts 52°
2026-04-20 20:26 35.61995 -97.02877 17234 ft 424 kts 52°
2026-04-20 20:26 35.63770 -96.99960 17710 ft 428 kts 52°
2026-04-20 20:26 35.65555 -96.97021 18232 ft 430 kts 53°
2026-04-20 20:27 35.67265 -96.93970 18631 ft 436 kts 58°
2026-04-20 20:27 35.68752 -96.90717 19051 ft 438 kts 61°
2026-04-20 20:27 35.70201 -96.87404 19480 ft 441 kts 61°
2026-04-20 20:27 35.71686 -96.84080 19821 ft 445 kts 60°
2026-04-20 20:28 35.73204 -96.80759 20324 ft 446 kts 59°
2026-04-20 20:28 35.74734 -96.77446 20869 ft 445 kts 59°
2026-04-20 20:28 35.76249 -96.74172 21290 ft 448 kts 59°
2026-04-20 20:28 35.77794 -96.70836 21717 ft 451 kts 59°
2026-04-20 20:29 35.79353 -96.67464 22086 ft 454 kts 58°
2026-04-20 20:29 35.80921 -96.64066 22423 ft 458 kts 60°
2026-04-20 20:29 35.82493 -96.60645 22792 ft 461 kts 59°
2026-04-20 20:29 35.84078 -96.57189 23160 ft 464 kts 59°
2026-04-20 20:30 35.85665 -96.53721 23594 ft 465 kts 60°
2026-04-20 20:30 35.87258 -96.50241 23914 ft 468 kts 59°
2026-04-20 20:30 35.88861 -96.46736 24223 ft 470 kts 59°
2026-04-20 20:30 35.90450 -96.43261 24536 ft 472 kts 59°
2026-04-20 20:31 35.92061 -96.39728 24882 ft 473 kts 59°
2026-04-20 20:31 35.93677 -96.36183 25194 ft 475 kts 59°
2026-04-20 20:31 35.95304 -96.32612 25415 ft 479 kts 59°
2026-04-20 20:31 35.96941 -96.29014 25636 ft 483 kts 59°
2026-04-20 20:32 35.98587 -96.25394 25892 ft 485 kts 59°
2026-04-20 20:32 36.00246 -96.21740 26063 ft 490 kts 59°
2026-04-20 20:32 36.01912 -96.18065 26342 ft 491 kts 59°
2026-04-20 20:32 36.03580 -96.14383 26636 ft 492 kts 59°
2026-04-20 20:33 36.05252 -96.10688 26877 ft 494 kts 59°
2026-04-20 20:33 36.06925 -96.06983 27223 ft 493 kts 59°
2026-04-20 20:33 36.08572 -96.03333 27634 ft 491 kts 59°
2026-04-20 20:33 36.10232 -95.99653 28010 ft 491 kts 59°
2026-04-20 20:34 36.11894 -95.95964 28394 ft 489 kts 59°
2026-04-20 20:34 36.13547 -95.92290 28752 ft 489 kts 59°
2026-04-20 20:34 36.15201 -95.88609 29059 ft 490 kts 59°
2026-04-20 20:34 36.16856 -95.84924 29376 ft 490 kts 59°
2026-04-20 20:35 36.18509 -95.81240 29760 ft 490 kts 59°
2026-04-20 20:35 36.20082 -95.77504 30120 ft 490 kts 64°
2026-04-20 20:35 36.21341 -95.73573 30449 ft 491 kts 68°
2026-04-20 20:35 36.22480 -95.69643 30732 ft 492 kts 69°
2026-04-20 20:36 36.23606 -95.65625 30867 ft 496 kts 69°
2026-04-20 20:36 36.24736 -95.61581 31080 ft 497 kts 69°
2026-04-20 20:36 36.25875 -95.57546 31428 ft 495 kts 69°
2026-04-20 20:36 36.27019 -95.53539 31799 ft 493 kts 68°
2026-04-20 20:37 36.28171 -95.49545 32108 ft 492 kts 68°
2026-04-20 20:37 36.29329 -95.45558 32363 ft 492 kts 68°
2026-04-20 20:37 36.30493 -95.41562 32608 ft 493 kts 68°
2026-04-20 20:37 36.31656 -95.37567 32898 ft 492 kts 68°
2026-04-20 20:38 36.32815 -95.33578 33201 ft 491 kts 68°
2026-04-20 20:38 36.33956 -95.29647 33461 ft 491 kts 68°
2026-04-20 20:38 36.35112 -95.25655 33671 ft 492 kts 68°
2026-04-20 20:38 36.36266 -95.21663 33937 ft 492 kts 68°
2026-04-20 20:39 36.37417 -95.17675 34241 ft 490 kts 68°
2026-04-20 20:39 36.38562 -95.13696 34486 ft 490 kts 68°
2026-04-20 20:39 36.39709 -95.09709 34654 ft 491 kts 68°
2026-04-20 20:39 36.40854 -95.05719 34889 ft 490 kts 68°
2026-04-20 20:40 36.41998 -95.01733 35068 ft 491 kts 68°
2026-04-20 20:40 36.43143 -94.97734 35216 ft 492 kts 68°
2026-04-20 20:40 36.44276 -94.93774 35380 ft 493 kts 67°
2026-04-20 20:40 36.45424 -94.89755 35522 ft 495 kts 67°
2026-04-20 20:41 36.46574 -94.85722 35696 ft 495 kts 67°
2026-04-20 20:41 36.47722 -94.81687 35883 ft 495 kts 67°
2026-04-20 20:41 36.48870 -94.77649 36043 ft 496 kts 67°
2026-04-20 20:41 36.50018 -94.73603 36200 ft 497 kts 67°
2026-04-20 20:42 36.51167 -94.69551 36377 ft 497 kts 67°
2026-04-20 20:42 36.52311 -94.65506 36573 ft 497 kts 67°
2026-04-20 20:42 36.53456 -94.61453 36751 ft 496 kts 67°
2026-04-20 20:42 36.54585 -94.57454 36898 ft 497 kts 67°
2026-04-20 20:43 36.55731 -94.53385 37025 ft 499 kts 67°
2026-04-20 20:43 36.56876 -94.49313 37132 ft 500 kts 67°
2026-04-20 20:43 36.58024 -94.45229 37243 ft 499 kts 67°
2026-04-20 20:43 36.59163 -94.41166 37255 ft 497 kts 67°
2026-04-20 20:44 36.61436 -94.33040 37271 ft 498 kts 67°
2026-04-20 20:44 36.63712 -94.24886 37269 ft 500 kts 67°
2026-04-20 20:45 36.65979 -94.16738 37281 ft 503 kts 67°
2026-04-20 20:45 36.68267 -94.08486 37282 ft 504 kts 67°
2026-04-20 20:46 36.70531 -94.00288 37253 ft 496 kts 67°
2026-04-20 20:46 36.72759 -93.92194 37253 ft 492 kts 67°
2026-04-20 20:47 36.74959 -93.84194 37248 ft 491 kts 67°
2026-04-20 20:47 36.77167 -93.76139 37261 ft 491 kts 66°
2026-04-20 20:48 36.79366 -93.68087 37261 ft 490 kts 66°
2026-04-20 20:48 36.81563 -93.60020 37258 ft 491 kts 66°
2026-04-20 20:49 36.83741 -93.51998 37238 ft 492 kts 67°
2026-04-20 20:49 36.85931 -93.43907 37257 ft 492 kts 67°
2026-04-20 20:50 36.88120 -93.35793 37242 ft 494 kts 67°
2026-04-20 20:50 36.90306 -93.27662 37255 ft 494 kts 67°
2026-04-20 20:51 36.92495 -93.19499 37244 ft 496 kts 67°
2026-04-20 20:51 36.94666 -93.11377 37247 ft 496 kts 67°
2026-04-20 20:52 36.96848 -93.03185 37261 ft 497 kts 67°
2026-04-20 20:52 36.99025 -92.94990 37258 ft 496 kts 67°
2026-04-20 20:53 37.01188 -92.86815 37233 ft 494 kts 67°
2026-04-20 20:53 37.03324 -92.78719 37240 ft 493 kts 67°
2026-04-20 20:54 37.05461 -92.70596 37247 ft 490 kts 67°
2026-04-20 20:54 37.07585 -92.62499 37248 ft 489 kts 66°
2026-04-20 20:55 37.09698 -92.54419 37255 ft 488 kts 67°
2026-04-20 20:55 37.11804 -92.46341 37244 ft 488 kts 67°
2026-04-20 20:56 37.13889 -92.38315 37246 ft 488 kts 67°
2026-04-20 20:56 37.15988 -92.30214 37246 ft 489 kts 67°
2026-04-20 20:57 37.18086 -92.22088 37247 ft 491 kts 67°
2026-04-20 20:57 37.20184 -92.13935 37259 ft 492 kts 67°
2026-04-20 20:58 37.22267 -92.05813 37264 ft 493 kts 67°
2026-04-20 20:58 37.24364 -91.97612 37245 ft 494 kts 67°
2026-04-20 20:59 37.26455 -91.89405 37278 ft 494 kts 67°
2026-04-20 20:59 37.28547 -91.81166 37248 ft 494 kts 67°
2026-04-20 21:00 37.30613 -91.73005 37240 ft 494 kts 67°
2026-04-20 21:00 37.32683 -91.64798 37243 ft 492 kts 67°
2026-04-20 21:01 37.34745 -91.56602 37237 ft 491 kts 67°
2026-04-20 21:01 37.36795 -91.48422 37246 ft 491 kts 66°
2026-04-20 21:02 37.38839 -91.40244 37252 ft 490 kts 66°
2026-04-20 21:02 37.40858 -91.32140 37243 ft 489 kts 66°
2026-04-20 21:03 37.42884 -91.23977 37259 ft 489 kts 67°
2026-04-20 21:03 37.44905 -91.15810 37279 ft 489 kts 67°
2026-04-20 21:04 37.46922 -91.07631 37258 ft 490 kts 66°
2026-04-20 21:04 37.48937 -90.99436 37263 ft 491 kts 66°
2026-04-20 21:05 37.50934 -90.91281 37277 ft 490 kts 66°
2026-04-20 21:05 37.52935 -90.83078 37290 ft 490 kts 66°
2026-04-20 21:06 37.54931 -90.74873 37323 ft 490 kts 66°
2026-04-20 21:06 37.56924 -90.66658 37291 ft 490 kts 66°
2026-04-20 21:07 37.58907 -90.58450 37281 ft 489 kts 66°
2026-04-20 21:07 37.60868 -90.50304 37282 ft 489 kts 66°
2026-04-20 21:08 37.62837 -90.42102 37261 ft 489 kts 66°
2026-04-20 21:08 37.64799 -90.33897 37297 ft 488 kts 66°
2026-04-20 21:09 37.66758 -90.25685 37291 ft 489 kts 66°
2026-04-20 21:09 37.68186 -90.17230 37348 ft 495 kts 76°
2026-04-20 21:10 37.69077 -90.08582 37304 ft 497 kts 77°
2026-04-20 21:10 37.69949 -89.99979 37318 ft 497 kts 76°
2026-04-20 21:11 37.70881 -89.91329 37291 ft 497 kts 76°
2026-04-20 21:11 37.71836 -89.82679 37318 ft 497 kts 75°
2026-04-20 21:12 37.72789 -89.74024 37300 ft 498 kts 75°
2026-04-20 21:12 37.73725 -89.65424 37295 ft 498 kts 76°
2026-04-20 21:13 37.74659 -89.56764 37309 ft 497 kts 76°
2026-04-20 21:13 37.75585 -89.48118 37309 ft 496 kts 76°
2026-04-20 21:14 37.76503 -89.39483 37308 ft 495 kts 76°
2026-04-20 21:14 37.77414 -89.30858 37303 ft 495 kts 76°
2026-04-20 21:15 37.78314 -89.22285 37337 ft 495 kts 76°
2026-04-20 21:15 37.79213 -89.13653 37299 ft 495 kts 76°
2026-04-20 21:16 37.80105 -89.05020 37308 ft 495 kts 76°
2026-04-20 21:16 37.80992 -88.96388 37328 ft 495 kts 76°
2026-04-20 21:17 37.81879 -88.87752 37307 ft 495 kts 76°
2026-04-20 21:17 37.82760 -88.79161 37328 ft 496 kts 76°
2026-04-20 21:18 37.83641 -88.70505 37316 ft 496 kts 76°
2026-04-20 21:18 37.84514 -88.61846 37326 ft 496 kts 76°
2026-04-20 21:19 37.85381 -88.53183 37324 ft 497 kts 76°
2026-04-20 21:20 37.86668 -88.40215 37322 ft 499 kts 76°
2026-04-20 21:20 37.87523 -88.31506 37334 ft 499 kts 76°
2026-04-20 21:21 37.88372 -88.22793 37328 ft 499 kts 76°
2026-04-20 21:21 37.89213 -88.14085 37338 ft 498 kts 76°
2026-04-20 21:22 37.90049 -88.05374 37354 ft 498 kts 76°
2026-04-20 21:22 37.90872 -87.96724 37342 ft 498 kts 76°
2026-04-20 21:23 37.91696 -87.88014 37330 ft 498 kts 76°
2026-04-20 21:23 37.92783 -87.79416 37273 ft 487 kts 64°
2026-04-20 21:23 37.94012 -87.75492 37398 ft 473 kts 55°
2026-04-20 21:24 37.95630 -87.71908 37322 ft 464 kts 46°
2026-04-20 21:24 37.99663 -87.65792 37382 ft 455 kts 40°
2026-04-20 21:25 38.03812 -87.59717 37343 ft 456 kts 40°
2026-04-20 21:25 38.07938 -87.53593 37339 ft 457 kts 41°
2026-04-20 21:26 38.12053 -87.47432 37341 ft 457 kts 41°
2026-04-20 21:26 38.16158 -87.41262 37340 ft 457 kts 41°
2026-04-20 21:27 38.20237 -87.35120 37327 ft 458 kts 41°
2026-04-20 21:27 38.24348 -87.28918 37334 ft 459 kts 41°
2026-04-20 21:28 38.28455 -87.22712 37335 ft 459 kts 41°
2026-04-20 21:28 38.32561 -87.16496 37342 ft 458 kts 41°
2026-04-20 21:29 38.36654 -87.10286 37340 ft 457 kts 41°
2026-04-20 21:29 38.40712 -87.04119 37329 ft 457 kts 41°
2026-04-20 21:30 38.44783 -86.97921 37327 ft 456 kts 41°
2026-04-20 21:30 38.48849 -86.91717 37358 ft 456 kts 41°
2026-04-20 21:31 38.52913 -86.85507 37342 ft 455 kts 41°
2026-04-20 21:31 38.56943 -86.79334 37340 ft 455 kts 41°
2026-04-20 21:32 38.60990 -86.73125 37344 ft 454 kts 41°
2026-04-20 21:32 38.65036 -86.66906 37328 ft 455 kts 41°
2026-04-20 21:33 38.69076 -86.60683 37339 ft 454 kts 42°
2026-04-20 21:33 38.73108 -86.54458 37358 ft 455 kts 41°
2026-04-20 21:34 38.77117 -86.48259 37342 ft 455 kts 41°
2026-04-20 21:34 38.81148 -86.42012 37325 ft 454 kts 42°
2026-04-20 21:35 38.85173 -86.35764 37344 ft 455 kts 42°
2026-04-20 21:35 38.89196 -86.29507 37343 ft 454 kts 42°
2026-04-20 21:36 38.93187 -86.23287 37340 ft 454 kts 42°
2026-04-20 21:36 38.97194 -86.17028 37365 ft 454 kts 42°
2026-04-20 21:37 39.01201 -86.10759 37351 ft 454 kts 42°
2026-04-20 21:37 39.05199 -86.04491 37343 ft 453 kts 42°
2026-04-20 21:38 39.09171 -85.98252 37333 ft 454 kts 42°
2026-04-20 21:38 39.13160 -85.91972 37342 ft 453 kts 42°
2026-04-20 21:39 39.17135 -85.85702 37341 ft 452 kts 42°
2026-04-20 21:39 39.21104 -85.79430 37360 ft 451 kts 42°
2026-04-20 21:40 39.24400 -85.74213 37356 ft 451 kts 42°
2026-04-20 21:40 39.28999 -85.66919 37355 ft 451 kts 42°
2026-04-20 21:41 39.32950 -85.60638 37353 ft 450 kts 42°
2026-04-20 21:41 39.36893 -85.54359 37352 ft 450 kts 42°
2026-04-20 21:42 39.40165 -85.49138 37354 ft 450 kts 42°
2026-04-20 21:42 39.44739 -85.41824 37385 ft 450 kts 42°
2026-04-20 21:43 39.48678 -85.35514 37365 ft 451 kts 42°
2026-04-20 21:43 39.51950 -85.30263 37348 ft 451 kts 42°
2026-04-20 21:44 39.55886 -85.23933 37363 ft 451 kts 42°
2026-04-20 21:44 39.60460 -85.16561 37366 ft 451 kts 42°
2026-04-20 21:45 39.63754 -85.11241 37368 ft 451 kts 42°
2026-04-20 21:45 39.67656 -85.04928 37363 ft 452 kts 42°
2026-04-20 21:46 39.71589 -84.98553 37380 ft 452 kts 42°
2026-04-20 21:46 39.75520 -84.92167 37369 ft 453 kts 42°
2026-04-20 21:47 39.79450 -84.85770 37353 ft 453 kts 42°
2026-04-20 21:47 39.83352 -84.79405 37357 ft 453 kts 42°
2026-04-20 21:48 39.87272 -84.72997 37360 ft 453 kts 42°
2026-04-20 21:48 39.91190 -84.66580 37416 ft 452 kts 42°
2026-04-20 21:49 39.95103 -84.60160 37359 ft 453 kts 42°
2026-04-20 21:49 39.99014 -84.53727 37363 ft 453 kts 42°
2026-04-20 21:50 40.02887 -84.47345 37377 ft 452 kts 42°
2026-04-20 21:50 40.06783 -84.40912 37380 ft 451 kts 42°
2026-04-20 21:51 40.10667 -84.34484 37373 ft 451 kts 43°
2026-04-20 21:51 40.14551 -84.28045 37409 ft 451 kts 42°
2026-04-20 21:52 40.18408 -84.21638 37387 ft 451 kts 43°
2026-04-20 21:52 40.22288 -84.15176 37380 ft 452 kts 43°
2026-04-20 21:53 40.26175 -84.08692 37374 ft 452 kts 43°
2026-04-20 21:53 40.30041 -84.02194 37354 ft 453 kts 43°
2026-04-20 21:54 40.33780 -83.95608 37390 ft 454 kts 44°
2026-04-20 21:54 40.37520 -83.88932 37399 ft 454 kts 44°
2026-04-20 21:55 40.41271 -83.82254 37383 ft 454 kts 44°
2026-04-20 21:55 40.45023 -83.75585 37373 ft 454 kts 44°
2026-04-20 21:56 40.48746 -83.68957 37365 ft 454 kts 44°
2026-04-20 21:56 40.52487 -83.62283 37368 ft 454 kts 44°
2026-04-20 21:57 40.56222 -83.55604 37387 ft 453 kts 44°
2026-04-20 21:57 40.59952 -83.48922 37384 ft 454 kts 44°
2026-04-20 21:58 40.63680 -83.42225 37388 ft 453 kts 44°
2026-04-20 21:58 40.67380 -83.35568 37371 ft 454 kts 44°
2026-04-20 21:59 40.71114 -83.28877 37377 ft 452 kts 43°
2026-04-20 21:59 40.74968 -83.22346 37376 ft 451 kts 42°
2026-04-20 22:00 40.78850 -83.15838 37384 ft 452 kts 42°
2026-04-20 22:00 40.82721 -83.09292 37389 ft 453 kts 43°
2026-04-20 22:01 40.86554 -83.02764 37384 ft 453 kts 43°
2026-04-20 22:01 40.90403 -82.96188 37396 ft 453 kts 43°
2026-04-20 22:02 40.94251 -82.89600 37401 ft 453 kts 43°
2026-04-20 22:02 40.98100 -82.82998 37398 ft 453 kts 43°
2026-04-20 22:03 41.01919 -82.76436 37407 ft 453 kts 43°
2026-04-20 22:03 41.05758 -82.69821 37395 ft 453 kts 43°
2026-04-20 22:04 41.09597 -82.63196 37385 ft 453 kts 43°
2026-04-20 22:04 41.13430 -82.56562 37386 ft 454 kts 44°
2026-04-20 22:05 41.16753 -82.49291 37456 ft 465 kts 53°
2026-04-20 22:05 41.19738 -82.41642 37420 ft 466 kts 53°
2026-04-20 22:06 41.22727 -82.34071 37409 ft 466 kts 53°
2026-04-20 22:06 41.25776 -82.26477 37397 ft 466 kts 52°
2026-04-20 22:07 41.28834 -82.18871 37399 ft 466 kts 53°
2026-04-20 22:07 41.31883 -82.11259 37418 ft 467 kts 53°
2026-04-20 22:08 41.34257 -82.03144 37439 ft 485 kts 69°
2026-04-20 22:08 41.34769 -81.98670 37347 ft 497 kts 78°
2026-04-20 22:08 41.34973 -81.94081 37476 ft 495 kts 79°
2026-04-20 22:09 41.35319 -81.84892 37400 ft 498 kts 79°
2026-04-20 22:09 41.35692 -81.75754 37384 ft 498 kts 79°
2026-04-20 22:10 41.36101 -81.66563 37393 ft 498 kts 79°
2026-04-20 22:10 41.36519 -81.57355 37403 ft 498 kts 79°
2026-04-20 22:11 41.36929 -81.48140 37416 ft 498 kts 79°
2026-04-20 22:11 41.37327 -81.38946 37388 ft 498 kts 79°
2026-04-20 22:12 41.37715 -81.29818 37395 ft 497 kts 79°
2026-04-20 22:12 41.38098 -81.20640 37394 ft 497 kts 79°
2026-04-20 22:13 41.38472 -81.11477 37404 ft 495 kts 79°
2026-04-20 22:13 41.38839 -81.02333 37395 ft 494 kts 79°
2026-04-20 22:14 41.39198 -80.93203 37385 ft 493 kts 79°
2026-04-20 22:14 41.39547 -80.84156 37373 ft 493 kts 80°
2026-04-20 22:15 41.39891 -80.75052 37379 ft 492 kts 80°
2026-04-20 22:15 41.40228 -80.65943 37386 ft 492 kts 80°
2026-04-20 22:16 41.40557 -80.56832 37396 ft 492 kts 80°
2026-04-20 22:16 41.40878 -80.47787 37390 ft 493 kts 80°
2026-04-20 22:17 41.41194 -80.38654 37403 ft 493 kts 81°
2026-04-20 22:17 41.41503 -80.29511 37403 ft 494 kts 81°
2026-04-20 22:18 41.41806 -80.20366 37388 ft 495 kts 81°
2026-04-20 22:18 41.42069 -80.11247 37365 ft 499 kts 84°
2026-04-20 22:19 41.41389 -80.01976 37489 ft 504 kts 92°
2026-04-20 22:19 41.40891 -79.97324 37360 ft 508 kts 92°
2026-04-20 22:19 41.40384 -79.92670 37406 ft 508 kts 92°
2026-04-20 22:20 41.39407 -79.83337 37386 ft 509 kts 92°
2026-04-20 22:20 41.38476 -79.73993 37362 ft 510 kts 92°
2026-04-20 22:21 41.37560 -79.64692 37364 ft 510 kts 92°
2026-04-20 22:21 41.36628 -79.55330 37360 ft 510 kts 92°
2026-04-20 22:22 41.35686 -79.45969 37346 ft 510 kts 92°
2026-04-20 22:22 41.34735 -79.36614 37366 ft 510 kts 93°
2026-04-20 22:23 41.33782 -79.27318 37341 ft 510 kts 93°
2026-04-20 22:23 41.32817 -79.17973 37323 ft 509 kts 93°
2026-04-20 22:24 41.31847 -79.08655 37330 ft 509 kts 93°
2026-04-20 22:24 41.30869 -78.99333 37322 ft 508 kts 94°
2026-04-20 22:25 41.29886 -78.90032 37301 ft 508 kts 94°
2026-04-20 22:25 41.28895 -78.80814 37308 ft 507 kts 94°
2026-04-20 22:26 41.27872 -78.71548 37337 ft 506 kts 94°
2026-04-20 22:26 41.26843 -78.62291 37340 ft 506 kts 94°
2026-04-20 22:27 41.25296 -78.48430 37338 ft 505 kts 94°
2026-04-20 22:27 41.24272 -78.39255 37322 ft 505 kts 94°
2026-04-20 22:28 41.23254 -78.30019 37318 ft 505 kts 94°
2026-04-20 22:28 41.22229 -78.20793 37331 ft 505 kts 94°
2026-04-20 22:29 41.21185 -78.11565 37320 ft 506 kts 95°
2026-04-20 22:29 41.20051 -78.02347 37337 ft 506 kts 95°
2026-04-20 22:30 41.18893 -77.93200 37352 ft 506 kts 96°
2026-04-20 22:30 41.17727 -77.83972 37334 ft 507 kts 96°
2026-04-20 22:31 41.16562 -77.74746 37313 ft 507 kts 96°
2026-04-20 22:31 41.15391 -77.65512 37314 ft 507 kts 96°
2026-04-20 22:32 41.14213 -77.56283 37337 ft 508 kts 96°
2026-04-20 22:32 41.13032 -77.47102 37326 ft 508 kts 96°
2026-04-20 22:33 41.11836 -77.37869 37309 ft 509 kts 96°
2026-04-20 22:33 41.10632 -77.28628 37315 ft 509 kts 97°
2026-04-20 22:34 41.09420 -77.19380 37339 ft 509 kts 97°
2026-04-20 22:34 41.08198 -77.10127 37334 ft 510 kts 97°
2026-04-20 22:35 41.06968 -77.00869 37312 ft 510 kts 97°
2026-04-20 22:35 41.05729 -76.91603 37302 ft 511 kts 97°
2026-04-20 22:36 41.04494 -76.82418 37319 ft 511 kts 98°
2026-04-20 22:36 41.03241 -76.73157 37312 ft 511 kts 98°
2026-04-20 22:37 41.01894 -76.63915 37289 ft 512 kts 103°
2026-04-20 22:37 40.99754 -76.54920 37322 ft 512 kts 108°
2026-04-20 22:38 40.97441 -76.46011 37296 ft 512 kts 107°
2026-04-20 22:38 40.95238 -76.37053 37298 ft 511 kts 107°
2026-04-20 22:39 40.94159 -76.32567 36962 ft 516 kts 106°
2026-04-20 22:39 40.93067 -76.28028 36322 ft 517 kts 106°
2026-04-20 22:39 40.91989 -76.23578 35858 ft 513 kts 106°
2026-04-20 22:39 40.90887 -76.19055 35024 ft 520 kts 106°
2026-04-20 22:40 40.89780 -76.14522 34459 ft 518 kts 106°
2026-04-20 22:40 40.88664 -76.09965 33528 ft 522 kts 106°
2026-04-20 22:40 40.87550 -76.05423 32956 ft 517 kts 106°
2026-04-20 22:40 40.86444 -76.00919 32298 ft 514 kts 106°
2026-04-20 22:41 40.85335 -75.96405 31294 ft 520 kts 106°
2026-04-20 22:41 40.84219 -75.91873 30678 ft 515 kts 105°
2026-04-20 22:41 40.83114 -75.87398 29970 ft 511 kts 105°
2026-04-20 22:41 40.82010 -75.82924 28820 ft 509 kts 106°
2026-04-20 22:42 40.80927 -75.78555 28070 ft 497 kts 106°
2026-04-20 22:42 40.79855 -75.74237 27251 ft 489 kts 107°
2026-04-20 22:42 40.78811 -75.70041 26966 ft 476 kts 107°
2026-04-20 22:42 40.77787 -75.65924 26247 ft 487 kts 107°
2026-04-20 22:43 40.76708 -75.61590 25439 ft 496 kts 107°
2026-04-20 22:43 40.75637 -75.57310 24754 ft 490 kts 107°
2026-04-20 22:43 40.74573 -75.53066 24209 ft 483 kts 107°
2026-04-20 22:43 40.73523 -75.48881 23398 ft 480 kts 107°
2026-04-20 22:44 40.72486 -75.44724 22755 ft 473 kts 106°